Powrót do katalogu

FENGYUN 1C DEB

AktywnyPO
NORAD 38817·DEBRIS·🇨🇳 China

Wystrzelony May 10, 1999 z Taiyuan Satellite Launch Center

Loading…

Następne Przeloty (najbliższe 24 godziny)

TLE

Starzejące sięSource: Space-Track

Epoka: Sep 7, 2026, 07:57 UTC

1 38817U 99025EVH 26250.33134662  .00000751  00000-0  81840-3 0  9992
2 38817  98.5783  92.5489 0290601  63.5547 299.5101 13.58447297694808

Śledź FENGYUN 1C DEB w czasie rzeczywistym z AllMySat

Download on the App Store